Olive Branch, MS

12:01 PM CST on November 20, 2017 (GMT -0600)
Olive Branch

Weather History for KOLV - March, 2014

Change the Weather History Date:

Tuesday, March 4, 2014

  Actual Average (KMEM) Record (KMEM)
Temperature  
Mean Temperature 24 °F -  
Max Temperature 30 °F 59 °F 81 °F (1963)
Min Temperature 17 °F 41 °F 16 °F (1893)
Degree Days  
Heating Degree Days 42    
Moisture  
Dew Point 24 °F    
Average Humidity 99    
Maximum Humidity 100    
Minimum Humidity 93    
Precipitation  
Precipitation 0.00 in - - ()
Sea Level Pressure  
Sea Level Pressure 30.23 in    
Wind  
Wind Speed 1 mph (NE)    
Max Wind Speed 7 mph    
Max Gust Speed -    
Visibility 7 miles    
Events      
Averages and records for this station are not official NWS values.
T = Trace of Precipitation, MM = Missing Value Source: NWS Daily Summary

Daily Weather History Graph

Daily Weather History Graph

Search for Another Location

Airport or City:

Trip Planner

Search our weather history database for the weather conditions in past years. The results will help you decide how hot, cold, wet, or windy it might be!

Date:

Astronomy

Mar. 04, 2014 Rise Set
Actual Time 6:24 AM CST 5:57 PM CST
Civil Twilight 5:59 AM CST 6:22 PM CST
Nautical Twilight 5:30 AM CST 6:52 PM CST
Astronomical Twilight 5:00 AM CST 7:21 PM CST
Moon 8:20 AM CST (3/4) 9:54 PM CST (3/4)
Length of Visible Light 12h 23m
Length of Day
11h 32m
Waxing Crescent, 15% of the Moon is Illuminated
Mar 4
Waxing Crescent
Mar 8
First Quarter
Mar 16
Full
Mar 23
Last Quarter
Mar 30
New

Hourly Weather History & Observations

Time (CST) Temp. Windchill Dew Point Humidity Pressure Visibility Wind Dir Wind Speed Gust Speed Precip Events Conditions
12:15 AM 21.2 °F - 19.4 °F 93% 30.33 in 9.0 mi Calm Calm - 0.00 in   Overcast
12:35 AM 21.2 °F - 21.2 °F 100% 30.32 in 7.0 mi Calm Calm - 0.00 in   Overcast
12:55 AM 21.2 °F - 21.2 °F 100% 30.30 in 8.0 mi Calm Calm - 0.00 in   Overcast
1:15 AM 21.2 °F - 21.2 °F 100% 30.31 in 10.0 mi Calm Calm - 0.00 in   Overcast
1:35 AM 21.2 °F - 21.2 °F 100% 30.29 in 8.0 mi Calm Calm - 0.00 in   Overcast
1:55 AM 21.2 °F - 21.2 °F 100% 30.28 in 10.0 mi Calm Calm - 0.00 in   Overcast
2:15 AM 21.2 °F - 21.2 °F 100% 30.27 in 10.0 mi Calm Calm - 0.00 in   Overcast
2:35 AM 21.2 °F - 21.2 °F 100% 30.26 in 10.0 mi Calm Calm - 0.00 in   Overcast
2:55 AM 21.2 °F - 21.2 °F 100% 30.25 in 10.0 mi Calm Calm - 0.00 in   Mostly Cloudy
3:15 AM - - - N/A% 30.25 in 10.0 mi Calm Calm - 0.00 in   Scattered Clouds
3:35 AM 19.4 °F - 19.4 °F 100% 30.24 in 10.0 mi Calm Calm - 0.00 in   Clear
3:55 AM 19.4 °F - 19.4 °F 100% 30.25 in 10.0 mi Calm Calm - 0.00 in   Clear
4:15 AM 17.6 °F - 17.6 °F 100% 30.26 in 10.0 mi Calm Calm - 0.00 in   Clear
4:35 AM 17.6 °F - 17.6 °F 100% 30.25 in 9.0 mi Calm Calm - 0.00 in   Clear
4:55 AM - - - N/A% 30.24 in 10.0 mi Calm Calm - 0.00 in   Clear
5:15 AM 17.6 °F - 17.6 °F 100% 30.25 in 10.0 mi Calm Calm - 0.00 in   Clear
5:35 AM 17.6 °F - 17.6 °F 100% 30.25 in 10.0 mi Calm Calm - 0.00 in   Clear
5:55 AM 17.6 °F - 17.6 °F 100% 30.23 in 8.0 mi Calm Calm - 0.00 in   Clear
6:15 AM 17.6 °F - 17.6 °F 100% 30.24 in 7.0 mi Calm Calm - 0.00 in   Clear
6:35 AM 17.6 °F - 17.6 °F 100% 30.24 in 8.0 mi Calm Calm - 0.00 in   Clear
6:50 AM 17.6 °F 10.7 °F 17.6 °F 100% 30.24 in 10.0 mi NE 4.6 mph - N/A   Mostly Cloudy
7:50 AM 19.4 °F 12.8 °F 19.4 °F 100% 30.26 in 10.0 mi NNE 4.6 mph - N/A   Mostly Cloudy
8:50 AM 21.2 °F 14.9 °F 21.2 °F 100% 30.27 in 10.0 mi NNE 4.6 mph - N/A   Mostly Cloudy
9:50 AM 23.0 °F 17.0 °F 23.0 °F 100% 30.27 in 10.0 mi NNE 4.6 mph - N/A   Overcast
10:50 AM 24.8 °F - 23.0 °F 93% 30.27 in 10.0 mi Calm Calm - N/A   Overcast
12:50 PM 28.4 °F 22.2 °F 26.6 °F 93% 30.20 in 9.0 mi NNE 5.8 mph - N/A   Mostly Cloudy
1:50 PM 30.2 °F 24.3 °F 28.4 °F 93% 30.17 in 9.0 mi ENE 5.8 mph - N/A   Mostly Cloudy
2:50 PM 30.2 °F 23.4 °F 28.4 °F 93% 30.17 in 9.0 mi East 6.9 mph - N/A   Overcast
3:50 PM 30.2 °F - 30.2 °F 100% 30.17 in 9.0 mi Calm Calm - N/A   Overcast
4:50 PM 30.2 °F - 30.2 °F 100% 30.16 in 9.0 mi Calm Calm - N/A   Overcast
5:50 PM 30.2 °F 24.3 °F 30.2 °F 100% 30.15 in 10.0 mi ENE 5.8 mph - N/A   Mostly Cloudy
6:50 PM 28.4 °F 22.2 °F 28.4 °F 100% 30.15 in 10.0 mi ENE 5.8 mph - N/A   Mostly Cloudy
7:50 PM 28.4 °F 22.2 °F 28.4 °F 100% 30.17 in 5.0 mi ENE 5.8 mph - N/A   Mostly Cloudy
8:55 PM 28.4 °F - 28.4 °F 100% 30.19 in 2.0 mi North - - 0.00 in   Overcast
9:15 PM 28.4 °F - 28.4 °F 100% 30.20 in 2.0 mi North - - 0.00 in   Overcast
9:35 PM 28.4 °F - 28.4 °F 100% 30.20 in 2.0 mi North - - 0.00 in   Overcast
9:55 PM 28.4 °F - 28.4 °F 100% 30.20 in 1.8 mi North - - 0.00 in   Overcast
10:15 PM 28.4 °F - 28.4 °F 100% 30.18 in 1.0 mi North - - 0.00 in   Overcast
10:35 PM 28.4 °F - 28.4 °F 100% 30.18 in 0.8 mi North - - 0.00 in   Overcast
10:55 PM 28.4 °F - 28.4 °F 100% 30.17 in 0.8 mi North - - 0.00 in   Overcast
11:15 PM 28.4 °F - 28.4 °F 100% 30.17 in 0.8 mi North - - 0.00 in   Overcast
11:35 PM 28.4 °F - 28.4 °F 100% 30.16 in 0.5 mi North - - 0.00 in   Overcast
11:55 PM 28.4 °F - 28.4 °F 100% 30.15 in 0.8 mi North - - 0.00 in   Overcast